TimeMDT,TemperatureF,Dew PointF,Humidity,Sea Level PressureIn,VisibilityMPH,Wind Direction,Wind SpeedMPH,Gust SpeedMPH,PrecipitationIn,Events,Conditions,WindDirDegrees,DateUTC
12:53 AM,48.0,39.0,71,29.74,8.0,SE,9.2,-,0.02,Rain,Light Rain,140,2013-09-26 06:53:00
1:53 AM,48.0,39.0,71,29.73,10.0,SSE,12.7,-,0.01,Rain,Light Rain,150,2013-09-26 07:53:00
2:53 AM,48.0,37.0,66,29.71,10.0,East,9.2,-,0.00,,Overcast,100,2013-09-26 08:53:00
3:53 AM,48.0,37.0,66,29.70,10.0,SSE,8.1,-,N/A,,Overcast,150,2013-09-26 09:53:00
4:53 AM,48.9,37.0,64,29.71,10.0,South,6.9,-,N/A,,Overcast,170,2013-09-26 10:53:00
5:53 AM,48.9,36.0,61,29.70,10.0,SSE,9.2,-,N/A,,Overcast,160,2013-09-26 11:53:00
6:53 AM,50.0,35.1,57,29.70,10.0,Calm,Calm,-,N/A,,Overcast,0,2013-09-26 12:53:00
7:53 AM,48.9,34.0,56,29.70,10.0,ESE,8.1,-,N/A,,Mostly Cloudy,110,2013-09-26 13:53:00
8:53 AM,51.1,33.1,50,29.69,10.0,Calm,Calm,-,N/A,,Mostly Cloudy,0,2013-09-26 14:53:00
9:53 AM,53.1,35.1,50,29.70,10.0,NNW,6.9,-,N/A,,Mostly Cloudy,340,2013-09-26 15:53:00
10:53 AM,54.0,34.0,47,29.69,10.0,North,8.1,-,N/A,,Mostly Cloudy,350,2013-09-26 16:53:00
11:53 AM,54.0,30.9,41,29.69,10.0,NNW,5.8,-,N/A,,Mostly Cloudy,330,2013-09-26 17:53:00
12:53 PM,57.0,32.0,39,29.69,10.0,NW,5.8,-,N/A,,Mostly Cloudy,320,2013-09-26 18:53:00
1:53 PM,55.0,33.1,43,29.69,10.0,NW,10.4,-,N/A,,Mostly Cloudy,320,2013-09-26 19:53:00
2:53 PM,55.9,36.0,47,29.68,10.0,NNW,15.0,20.7,N/A,,Mostly Cloudy,340,2013-09-26 20:53:00
3:53 PM,55.9,35.1,45,29.70,10.0,NW,16.1,21.9,N/A,,Mostly Cloudy,310,2013-09-26 21:53:00
4:53 PM,53.1,37.0,55,29.72,10.0,NW,18.4,23.0,N/A,,Overcast,320,2013-09-26 22:53:00
5:53 PM,52.0,36.0,54,29.74,10.0,North,16.1,-,N/A,,Mostly Cloudy,350,2013-09-26 23:53:00
6:53 PM,48.9,39.9,71,29.76,10.0,North,11.5,-,0.01,Rain,Light Rain,350,2013-09-27 00:53:00
7:53 PM,48.9,37.9,66,29.78,10.0,NNW,8.1,-,0.00,Rain,Light Rain,340,2013-09-27 01:53:00
8:53 PM,48.9,37.0,64,29.79,10.0,NNW,6.9,-,0.00,,Mostly Cloudy,330,2013-09-27 02:53:00
9:53 PM,48.0,39.0,71,29.80,10.0,SW,3.5,-,N/A,,Overcast,230,2013-09-27 03:53:00
10:53 PM,48.0,37.0,66,29.81,10.0,NW,4.6,-,N/A,,Mostly Cloudy,310,2013-09-27 04:53:00
11:53 PM,48.0,37.9,68,29.81,10.0,Calm,Calm,-,N/A,,Overcast,0,2013-09-27 05:53:00